EW0105 Weather Reports


Display with metric or nautical units.
time (UTC)temp
F
wind
direction
speed
MPH
gust
MPH
rain 1hr
in
rain 24hr
in
rain mn
in
humidity
%
barometer
mb
20181217134554 32 313 0.0 0.0 0.00 0.00 0.00 87 1023.1
20181217133104 32 314 0.0 0.0 0.00 0.00 0.00 87 1023.0
20181217131532 31 315 0.0 0.0 0.00 0.00 0.00 88 1022.8
20181217130044 31 315 0.0 0.0 0.00 0.00 0.00 87 1022.7
20181217124526 31 316 0.0 0.0 0.00 0.00 0.00 88 1022.6
20181217123049 31 316 0.0 0.0 0.00 0.00 0.00 88 1022.4
20181217121616 31 315 0.0 0.0 0.00 0.00 0.00 88 1022.3
20181217120042 31 292 0.0 0.0 0.00 0.00 0.00 88 1022.4
20181217114523 32 292 0.0 0.0 0.00 0.00 0.00 89 1022.1
20181217113025 32 292 0.0 0.0 0.00 0.00 0.00 89 1022.4
20181217111520 32 292 0.0 0.0 0.00 0.00 0.00 89 1022.2
20181217110021 32 289 0.0 0.0 0.00 0.00 0.00 89 1021.9
20181217104513 32 275 0.0 0.0 0.00 0.00 0.00 90 1021.9
20181217103010 32 274 0.0 0.0 0.00 0.00 0.00 89 1021.9
20181217101513 32 275 0.0 0.0 0.00 0.00 0.00 89 1021.8
20181217100007 33 275 0.0 0.0 0.00 0.00 0.00 89 1021.6
20181217094508 32 276 0.0 1.0 0.00 0.00 0.00 89 1021.5
20181217093009 33 278 0.0 0.0 0.00 0.00 0.00 89 1021.6
20181217091506 33 285 0.0 0.0 0.00 0.00 0.00 89 1021.6
20181217090003 33 283 0.0 0.0 0.00 0.00 0.00 89 1021.6
20181217084505 33 273 0.0 0.0 0.00 0.00 0.00 89 1021.6
20181217083142 33 266 0.0 0.0 0.00 0.00 0.00 89 1021.7
20181217081626 33 266 0.0 0.0 0.00 0.00 0.00 88 1021.5
20181217080204 33 261 0.0 0.0 0.00 0.00 0.00 88 1021.4
20181217074631 33 223 0.0 0.0 0.00 0.00 0.00 88 1021.4
20181217073141 34 221 0.0 0.0 0.00 0.00 0.00 87 1021.3
20181217071751 34 220 0.0 0.0 0.00 0.00 0.00 86 1021.3
20181217070143 34 242 0.0 0.0 0.00 0.00 0.00 87 1021.1
20181217064621 34 263 0.0 0.0 0.00 0.00 0.00 86 1021.1
20181217063209 35 267 0.0 0.0 0.00 0.00 0.00 86 1021.2
20181217061652 35 269 0.0 0.0 0.00 0.00 0.00 86 1021.6
20181217060107 35 269 0.0 0.0 0.00 0.00 0.00 86 1021.5
20181217054622 35 271 0.0 0.0 0.00 0.00 0.00 86 1021.4
20181217053159 35 271 0.0 0.0 0.00 0.00 0.00 86 1021.3
20181217051657 35 272 0.0 0.0 0.00 0.00 0.00 86 1021.9
20181217050149 35 272 0.0 0.0 0.00 0.00 0.00 85 1022.4
20181217044630 36 272 0.0 2.0 0.00 0.00 0.00 84 1022.2
20181217043102 36 268 0.0 0.0 0.00 0.00 0.00 85 1021.9
20181217041620 36 268 0.0 0.0 0.00 0.00 0.00 84 1022.0
20181217040110 36 268 0.0 0.0 0.00 0.00 0.00 83 1022.0
20181217034547 37 268 0.0 0.0 0.00 0.00 0.00 83 1022.1
20181217033152 37 292 0.0 0.0 0.00 0.00 0.00 83 1022.4
20181217031639 38 289 0.0 0.0 0.00 0.00 0.00 82 1022.5
20181217030108 38 271 0.0 0.0 0.00 0.00 0.00 82 1022.4
20181217024605 39 273 0.0 0.0 0.00 0.00 0.00 81 1022.3
20181217023058 40 275 0.0 0.0 0.00 0.00 0.00 79 1022.2
20181217021553 41 272 0.0 0.0 0.00 0.00 0.00 78 1022.0
20181217020119 41 271 0.0 0.0 0.00 0.00 0.00 78 1021.9
20181217014637 41 264 0.0 0.0 0.00 0.00 0.00 78 1022.0
20181217013116 41 257 0.0 0.0 0.00 0.00 0.00 79 1022.0
20181217011617 41 251 0.0 0.0 0.00 0.00 0.00 78 1022.0
20181217010053 42 234 0.0 0.0 0.00 0.00 0.00 79 1021.8
20181217004546 42 229 0.0 0.0 0.00 0.00 0.00 78 1021.6
20181217003049 42 260 0.0 0.0 0.00 0.00 0.00 78 1021.6
20181217001626 42 260 0.0 0.0 0.00 0.00 0.00 77 1021.4
20181217000040 43 266 0.0 0.0 0.00 0.00 0.00 76 1021.3
20181216234614 43 271 0.0 0.0 0.00 0.00 0.00 77 1021.0
20181216233050 44 273 0.0 0.0 0.00 0.00 0.00 75 1020.8
20181216231549 44 275 0.0 0.0 0.00 0.00 0.00 74 1020.5
20181216230048 45 276 0.0 0.0 0.00 0.00 0.00 73 1020.7
20181216224636 45 279 0.0 0.0 0.00 0.00 0.00 72 1020.8
20181216223054 47 278 0.0 0.0 0.00 0.00 0.00 70 1020.9
20181216221528 47 280 0.0 0.0 0.00 0.00 0.00 70 1021.0
20181216220052 48 265 0.0 0.0 0.00 0.00 0.00 72 1020.9
20181216214612 50 288 0.0 0.0 0.00 0.00 0.00 70 1020.9
20181216213043 51 244 0.0 0.0 0.00 0.00 0.00 70 1020.9
20181216211553 51 232 0.0 0.0 0.00 0.00 0.00 69 1020.8
20181216210124 50 270 0.0 0.0 0.00 0.00 0.00 69 1020.9
20181216204537 50 271 0.0 0.0 0.00 0.00 0.00 68 1020.8
20181216203024 50 287 0.0 0.0 0.00 0.00 0.00 69 1020.7
20181216201605 50 273 0.0 0.0 0.00 0.00 0.00 67 1020.3
20181216200030 49 265 0.0 0.0 0.00 0.00 0.00 67 1020.4
20181216194521 49 282 0.0 0.0 0.00 0.00 0.00 67 1020.0
20181216193034 48 286 0.0 0.0 0.00 0.00 0.00 68 1020.1
20181216191516 48 271 0.0 0.0 0.00 0.00 0.00 69 1020.2
20181216190014 47 217 0.0 0.0 0.00 0.00 0.00 71 1020.3
20181216184509 46 216 0.0 0.0 0.00 0.00 0.00 72 1020.4
20181216183005 46 239 0.0 0.0 0.00 0.00 0.00 71 1020.5
20181216181502 45 215 0.0 0.0 0.00 0.00 0.00 73 1020.6
20181216180134 45 234 0.0 0.0 0.00 0.00 0.00 75 1020.8
20181216174652 44 254 0.0 0.0 0.00 0.00 0.00 77 1021.1
20181216173129 43 258 0.0 0.0 0.00 0.00 0.00 78 1021.3
20181216171706 42 246 0.0 0.0 0.00 0.00 0.00 78 1021.4
20181216170153 42 251 0.0 0.0 0.00 0.00 0.00 80 1021.6
20181216164705 41 257 0.0 0.0 0.00 0.01 0.00 84 1021.9
20181216163115 40 267 0.0 0.0 0.00 0.01 0.00 88 1022.2
20181216161625 38 270 0.0 0.0 0.00 0.01 0.00 90 1022.3
20181216160110 37 284 0.0 0.0 0.00 0.01 0.00 91 1022.6
20181216154605 36 284 0.0 0.0 0.00 0.02 0.00 92 1022.4
20181216153109 35 285 0.0 0.0 0.00 0.02 0.00 92 1022.7
20181216151540 34 273 0.0 0.0 0.00 0.02 0.00 93 1022.2
20181216150130 33 273 0.0 0.0 0.00 0.02 0.00 94 1021.9
20181216144605 32 272 0.0 0.0 0.00 0.02 0.00 93 1022.0
20181216143044 32 272 0.0 0.0 0.00 0.02 0.00 93 1021.7
20181216141536 31 272 0.0 0.0 0.00 0.02 0.00 93 1021.7
20181216140104 31 275 0.0 0.0 0.00 0.02 0.00 93 1021.4